Vilnius, Lithuania

9:07 AM EEST on September 22, 2017 (GMT +0300)
Vilnius International

Weather History for EYVI - September, 2017

Change the Weather History Date:

Thursday, September 14, 2017

  Actual Average Record
Temperature  
Mean Temperature 56 °F -  
Max Temperature 61 °F 56 °F 71 °F (2004)
Min Temperature 50 °F 42 °F 39 °F (1996)
Degree Days  
Heating Degree Days 10    
Growing Degree Days 6 (Base 50)    
Moisture  
Dew Point 50 °F    
Average Humidity 79    
Maximum Humidity 94    
Minimum Humidity 49    
Precipitation  
Precipitation 0.00 in 0.08 in - ()
Sea Level Pressure  
Sea Level Pressure 29.48 in    
Wind  
Wind Speed 14 mph ()    
Max Wind Speed 23 mph    
Max Gust Speed -    
Visibility 7.0 miles    
Events Rain    
Averages and records for this station are not official NWS values.
T = Trace of Precipitation, MM = Missing Value Source: Averaged Metar Reports

Daily Weather History Graph

Daily Weather History Graph

Search for Another Location

Airport or City:

Trip Planner

Search our weather history database for the weather conditions in past years. The results will help you decide how hot, cold, wet, or windy it might be!

Date:

Astronomy

Sep. 14, 2017 Rise Set
Actual Time 6:49 AM EEST 7:37 PM EEST
Civil Twilight 6:13 AM EEST 8:14 PM EEST
Nautical Twilight 5:29 AM EEST 8:57 PM EEST
Astronomical Twilight 4:41 AM EEST 9:45 PM EEST
Moon No Moon Rise 4:19 PM EEST (9/14)
Length of Visible Light 14h 00m
Length of Day
12h 48m
Last Quarter, 38% of the Moon is Illuminated
Sep 14
Last Quarter
Sep 20
New
Sep 28
First Quarter
Oct 5
Full
Oct 12
Last Quarter

Hourly Weather History & Observations

Time (EEST) Temp. Dew Point Humidity Pressure Visibility Wind Dir Wind Speed Gust Speed Precip Events Conditions
12:00 AM 58 °F 49 °F 64% 29.50 in 12 mi South 13.4 mph - - Rain Light Rain
12:10 AM 57.2 °F 50.0 °F 77% 29.50 in 6.2 mi South 16.1 mph - N/A Rain Light Rain Showers
12:20 AM 57.2 °F 50.0 °F 77% 29.47 in 6.2 mi South 18.4 mph - N/A Rain Light Rain Showers
12:50 AM 57.2 °F 50.0 °F 77% 29.47 in 6.2 mi South 13.8 mph - N/A   Mostly Cloudy
1:20 AM 57.2 °F 50.0 °F 77% 29.44 in 6.2 mi South 13.8 mph - N/A   Mostly Cloudy
1:50 AM 57.2 °F 50.0 °F 77% 29.44 in 6.2 mi South 17.3 mph - N/A   Mostly Cloudy
2:20 AM 57.2 °F 50.0 °F 77% 29.44 in 6.2 mi South 18.4 mph - N/A   Mostly Cloudy
2:50 AM 55.4 °F 51.8 °F 88% 29.44 in 5.6 mi SW 19.6 mph - N/A Rain Rain Showers
3:00 AM 54 °F 51 °F 86% 29.47 in 11 mi WSW 11.2 mph - - Rain Rain
3:20 AM 53.6 °F 51.8 °F 94% 29.44 in 6.2 mi SW 15.0 mph - N/A Rain Light Rain Showers
3:50 AM 53.6 °F 50.0 °F 88% 29.44 in 6.2 mi SSW 16.1 mph - N/A   Overcast
4:20 AM 51.8 °F 50.0 °F 94% 29.44 in 6.2 mi SSW 16.1 mph - N/A   Mostly Cloudy
4:50 AM 51.8 °F 50.0 °F 94% 29.44 in 6.2 mi SSW 16.1 mph - N/A   Scattered Clouds
5:20 AM 51.8 °F 48.2 °F 88% 29.47 in 6.2 mi SSW 15.0 mph - N/A   Scattered Clouds
5:50 AM 51.8 °F 50.0 °F 94% 29.47 in 6.2 mi SSW 13.8 mph - N/A   Scattered Clouds
6:00 AM 51 °F 48 °F 87% 29.47 in 12 mi SSW 11.2 mph - -   Partly Cloudy
6:20 AM 51.8 °F 48.2 °F 88% 29.44 in 6.2 mi SSW 17.3 mph - N/A   Mostly Cloudy
6:50 AM 50.0 °F 48.2 °F 94% 29.47 in 6.2 mi SSW 13.8 mph - N/A   Scattered Clouds
7:20 AM 51.8 °F 48.2 °F 88% 29.47 in 6.2 mi South 11.5 mph - N/A   Scattered Clouds
7:50 AM 51.8 °F 50.0 °F 94% 29.47 in 6.2 mi South 13.8 mph - N/A   Scattered Clouds
8:20 AM 53.6 °F 50.0 °F 88% 29.47 in 6.2 mi SSW 13.8 mph - N/A   Scattered Clouds
8:50 AM 55.4 °F 50.0 °F 82% 29.47 in 6.2 mi SSW 15.0 mph - N/A   Scattered Clouds
9:00 AM 55 °F 50 °F 78% 29.48 in 12 mi SSW 13.4 mph - -   Partly Cloudy
9:20 AM 55.4 °F 50.0 °F 82% 29.47 in 6.2 mi SSW 16.1 mph - N/A   Scattered Clouds
9:50 AM 57.2 °F 50.0 °F 77% 29.47 in 6.2 mi SSW 18.4 mph - N/A   Scattered Clouds
10:20 AM 59.0 °F 48.2 °F 67% 29.47 in 6.2 mi SW 17.3 mph - N/A   Mostly Cloudy
10:50 AM 59.0 °F 50.0 °F 72% 29.47 in 6.2 mi SW 19.6 mph - N/A   Mostly Cloudy
11:20 AM 60.8 °F 48.2 °F 63% 29.50 in 6.2 mi SW 23.0 mph - N/A   Mostly Cloudy
11:50 AM 60.8 °F 46.4 °F 59% 29.47 in 6.2 mi SW 20.7 mph - N/A   Mostly Cloudy
12:00 PM 61 °F 47 °F 49% 29.50 in 12 mi SW 15.7 mph - -   Scattered Clouds
12:20 PM 60.8 °F 46.4 °F 59% 29.47 in 6.2 mi SW 21.9 mph - N/A   Mostly Cloudy
12:50 PM 60.8 °F 46.4 °F 59% 29.50 in 6.2 mi SW 18.4 mph - N/A   Mostly Cloudy
1:20 PM 60.8 °F 48.2 °F 63% 29.50 in 6.2 mi SSW 15.0 mph - N/A   Mostly Cloudy
1:50 PM 60.8 °F 48.2 °F 63% 29.50 in - SW 15.0 mph - N/A   Clear
2:20 PM 60.8 °F 48.2 °F 63% 29.50 in 6.2 mi SW 17.3 mph - N/A   Mostly Cloudy
2:50 PM 59.0 °F 50.0 °F 72% 29.50 in 6.2 mi SW 10.4 mph - N/A Rain Light Rain Showers
3:00 PM 59 °F 49 °F 61% 29.52 in 12 mi SSW 11.2 mph - -   Mostly Cloudy
3:20 PM 59.0 °F 50.0 °F 72% 29.50 in 6.2 mi SW 11.5 mph - N/A Rain Light Rain Showers
3:50 PM 57.2 °F 50.0 °F 77% 29.50 in 6.2 mi SW 10.4 mph - N/A Rain Light Rain Showers
4:20 PM 55.4 °F 51.8 °F 88% 29.50 in 6.2 mi South 9.2 mph - N/A Rain Light Rain Showers
4:50 PM 57.2 °F 53.6 °F 88% 29.50 in 6.2 mi SSW 10.4 mph - N/A   Mostly Cloudy
5:20 PM 59.0 °F 53.6 °F 82% 29.50 in 6.2 mi SSW 13.8 mph - N/A   Mostly Cloudy
5:50 PM 59.0 °F 51.8 °F 77% 29.50 in 6.2 mi SW 11.5 mph - N/A   Mostly Cloudy
6:00 PM 60 °F 51 °F 63% 29.51 in 12 mi SW 11.2 mph - -   Mostly Cloudy
6:20 PM 59.0 °F 53.6 °F 82% 29.50 in 6.2 mi SSW 10.4 mph - N/A   Mostly Cloudy
6:50 PM 59.0 °F 51.8 °F 77% 29.47 in 6.2 mi SSW 12.7 mph - N/A   Mostly Cloudy
7:20 PM 59.0 °F 50.0 °F 72% 29.47 in 6.2 mi SSW 15.0 mph - N/A   Mostly Cloudy
8:20 PM 57.2 °F 50.0 °F 77% 29.50 in 6.2 mi SSW 13.8 mph - N/A Rain Light Rain Showers
8:50 PM 55.4 °F 51.8 °F 88% 29.50 in 6.2 mi SSW 13.8 mph - N/A   Mostly Cloudy
9:00 PM 57 °F 50 °F 72% 29.53 in 12 mi SSW 11.2 mph - - Rain Light Rain
9:20 PM 55.4 °F 51.8 °F 88% 29.53 in 6.2 mi SSW 13.8 mph - N/A   Mostly Cloudy
9:50 PM 55.4 °F 51.8 °F 88% 29.50 in 6.2 mi SW 11.5 mph - N/A   Mostly Cloudy
10:20 PM 55.4 °F 51.8 °F 88% 29.53 in 6.2 mi SSW 11.5 mph - N/A   Mostly Cloudy
10:50 PM 55.4 °F 51.8 °F 88% 29.53 in 6.2 mi SSW 12.7 mph - N/A   Mostly Cloudy
11:20 PM 55.4 °F 51.8 °F 88% 29.53 in 6.2 mi SSW 15.0 mph - N/A   Mostly Cloudy
11:50 PM 55.4 °F 51.8 °F 88% 29.53 in 6.2 mi SSW 13.8 mph - N/A   Mostly Cloudy